Owatonna, MN

10:16 AM CDT on August 22, 2017 (GMT -0500)
Owatonna Degner Regional

Weather History for KOWA - November, 2012

Change the Weather History Date:

Thursday, November 8, 2012

  Actual Average Record
Temperature  
Mean Temperature 47 °F -  
Max Temperature 59 °F 47 °F 78 °F (1999)
Min Temperature 35 °F 27 °F 4 °F (1991)
Degree Days  
Heating Degree Days 18    
Moisture  
Dew Point 32 °F    
Average Humidity 62    
Maximum Humidity 87    
Minimum Humidity 39    
Precipitation  
Precipitation 0.00 in - - ()
Sea Level Pressure  
Sea Level Pressure 29.97 in    
Wind  
Wind Speed 11 mph (SSE)    
Max Wind Speed 20 mph    
Max Gust Speed 26 mph    
Visibility 10 miles    
Events      
Averages and records for this station are not official NWS values.
T = Trace of Precipitation, MM = Missing Value Source: NWS Daily Summary

Daily Weather History Graph

Daily Weather History Graph

Search for Another Location

Airport or City:

Trip Planner

Search our weather history database for the weather conditions in past years. The results will help you decide how hot, cold, wet, or windy it might be!

Date:

Astronomy

Nov. 08, 2012 Rise Set
Actual Time 6:59 AM CST 4:53 PM CST
Civil Twilight 6:29 AM CST 5:24 PM CST
Nautical Twilight 5:54 AM CST 5:58 PM CST
Astronomical Twilight 5:20 AM CST 6:32 PM CST
Moon 12:43 AM CST (11/8) 1:45 PM CST (11/8)
Length of Visible Light 10h 55m
Length of Day
9h 53m
Waning Crescent, 32% of the Moon is Illuminated
Nov 8
Waning Crescent
Nov 13
New
Nov 20
First Quarter
Nov 28
Full
Dec 6
Last Quarter

Hourly Weather History & Observations

Time (CST) Temp. Windchill Dew Point Humidity Pressure Visibility Wind Dir Wind Speed Gust Speed Precip Events Conditions
12:13 AM 39.2 °F 33.6 °F 28.4 °F 65% 30.06 in 10.0 mi SSE 8.1 mph - N/A   Clear
12:33 AM 39.2 °F 32.5 °F 28.4 °F 65% 30.06 in 10.0 mi SSE 10.4 mph - N/A   Clear
12:53 AM 39.2 °F 32.5 °F 28.4 °F 65% 30.05 in 10.0 mi SSE 10.4 mph - N/A   Clear
1:13 AM 39.2 °F 32.0 °F 28.4 °F 65% 30.05 in 10.0 mi SSE 11.5 mph - N/A   Clear
1:33 AM 39.2 °F 32.5 °F 28.4 °F 65% 30.05 in 10.0 mi SSE 10.4 mph - N/A   Clear
1:53 AM 37.4 °F 29.8 °F 28.4 °F 70% 30.04 in 10.0 mi SSE 11.5 mph - N/A   Clear
2:14 AM 37.4 °F 29.8 °F 28.4 °F 70% 30.03 in 10.0 mi SSE 11.5 mph - N/A   Clear
2:33 AM 37.4 °F 29.8 °F 28.4 °F 70% 30.03 in 10.0 mi SSE 11.5 mph - N/A   Clear
2:53 AM 39.2 °F 32.0 °F 28.4 °F 65% 30.03 in 10.0 mi SSE 11.5 mph - N/A   Clear
3:13 AM 39.2 °F 31.6 °F 28.4 °F 65% 30.01 in 10.0 mi SSE 12.7 mph - N/A   Clear
3:33 AM 39.2 °F 31.6 °F 28.4 °F 65% 30.01 in 10.0 mi SSE 12.7 mph - N/A   Clear
3:53 AM 39.2 °F 31.2 °F 28.4 °F 65% 30.00 in 10.0 mi SSE 13.8 mph - N/A   Clear
4:13 AM 39.2 °F 30.8 °F 28.4 °F 65% 29.99 in 10.0 mi SSE 15.0 mph - N/A   Clear
4:34 AM 39.2 °F 30.8 °F 28.4 °F 65% 29.98 in 10.0 mi SSE 15.0 mph 19.6 mph N/A   Clear
5:13 AM 39.2 °F 30.2 °F 28.4 °F 65% 29.98 in 10.0 mi SSE 17.3 mph 21.9 mph N/A   Clear
5:33 AM 39.2 °F 30.2 °F 28.4 °F 65% 29.98 in 10.0 mi SSE 17.3 mph 20.7 mph N/A   Clear
5:54 AM 39.2 °F 30.5 °F 28.4 °F 65% 29.98 in 10.0 mi SSE 16.1 mph - N/A   Clear
6:13 AM 39.2 °F 30.8 °F 28.4 °F 65% 29.97 in 10.0 mi SSE 15.0 mph - N/A   Clear
6:34 AM 39.2 °F 30.5 °F 28.4 °F 65% 29.96 in 10.0 mi SSE 16.1 mph 21.9 mph N/A   Clear
6:53 AM 39.2 °F 30.5 °F 28.4 °F 65% 29.96 in 10.0 mi South 16.1 mph 25.3 mph N/A   Clear
7:14 AM 39.2 °F 29.6 °F 28.4 °F 65% 29.96 in 10.0 mi SSE 19.6 mph 24.2 mph N/A   Clear
7:33 AM 39.2 °F 30.5 °F 30.2 °F 70% 29.97 in 10.0 mi SSE 16.1 mph - N/A   Clear
7:53 AM 41.0 °F 33.1 °F 30.2 °F 65% 29.97 in 10.0 mi SSE 15.0 mph 19.6 mph N/A   Clear
8:13 AM 41.0 °F 33.1 °F 30.2 °F 65% 29.97 in 10.0 mi SSE 15.0 mph - N/A   Clear
8:34 AM 42.8 °F 34.8 °F 30.2 °F 61% 29.97 in 10.0 mi SSE 17.3 mph - N/A   Clear
8:54 AM 44.6 °F 37.8 °F 30.2 °F 57% 29.98 in 10.0 mi South 15.0 mph 23.0 mph N/A   Clear
9:13 AM 44.6 °F 37.4 °F 30.2 °F 57% 29.97 in 10.0 mi South 16.1 mph 24.2 mph N/A   Clear
9:33 AM 46.4 °F 39.5 °F 32.0 °F 57% 29.97 in 10.0 mi SSE 17.3 mph 21.9 mph N/A   Clear
9:53 AM 46.4 °F 39.5 °F 32.0 °F 57% 29.96 in 10.0 mi South 17.3 mph 25.3 mph N/A   Clear
10:13 AM 48.2 °F - 33.8 °F 58% 29.96 in 10.0 mi South 18.4 mph 26.5 mph N/A   Clear
10:33 AM 48.2 °F - 33.8 °F 58% 29.95 in 10.0 mi SSE 17.3 mph 24.2 mph N/A   Clear
10:53 AM 50.0 °F - 33.8 °F 54% 29.95 in 10.0 mi SSE 17.3 mph 24.2 mph N/A   Clear
11:14 AM 50.0 °F - 33.8 °F 54% 29.95 in 10.0 mi South 13.8 mph 23.0 mph N/A   Clear
11:33 AM 53.6 °F - 35.6 °F 51% 29.94 in 10.0 mi South 16.1 mph 20.7 mph N/A   Clear
11:53 AM 53.6 °F - 35.6 °F 51% 29.93 in 10.0 mi South 16.1 mph 19.6 mph N/A   Clear
12:13 PM 55.4 °F - 33.8 °F 44% 29.93 in 10.0 mi South 17.3 mph 21.9 mph N/A   Clear
12:53 PM 55.4 °F - 35.6 °F 47% 29.92 in 10.0 mi South 11.5 mph - N/A   Clear
1:13 PM 57.2 °F - 35.6 °F 44% 29.92 in 10.0 mi South 11.5 mph - N/A   Clear
1:34 PM 57.2 °F - 35.6 °F 44% 29.92 in 10.0 mi South 13.8 mph - N/A   Clear
1:53 PM 59.0 °F - 35.6 °F 42% 29.91 in 10.0 mi South 16.1 mph 19.6 mph N/A   Clear
2:13 PM 59.0 °F - 35.6 °F 42% 29.91 in 10.0 mi SSW 12.7 mph - N/A   Clear
2:33 PM 59.0 °F - 35.6 °F 42% 29.91 in 10.0 mi SSW 15.0 mph - N/A   Clear
2:53 PM 59.0 °F - 33.8 °F 39% 29.91 in 10.0 mi SSW 13.8 mph - N/A   Clear
3:13 PM 57.2 °F - 33.8 °F 41% 29.92 in 10.0 mi SW 10.4 mph - N/A   Clear
3:33 PM 57.2 °F - 33.8 °F 41% 29.92 in 10.0 mi SW 13.8 mph - N/A   Clear
3:53 PM 57.2 °F - 35.6 °F 44% 29.92 in 10.0 mi SW 9.2 mph - N/A   Clear
4:13 PM 57.2 °F - 35.6 °F 44% 29.93 in 10.0 mi SW 6.9 mph - N/A   Clear
4:34 PM 55.4 °F - 35.6 °F 47% 29.93 in 10.0 mi SW 4.6 mph - N/A   Clear
4:53 PM 53.6 °F - 35.6 °F 51% 29.93 in 10.0 mi Calm Calm - N/A   Clear
5:13 PM 51.8 °F - 35.6 °F 54% 29.94 in 10.0 mi Calm Calm - N/A   Clear
5:33 PM 48.2 °F - 35.6 °F 62% 29.94 in 10.0 mi Calm Calm - N/A   Clear
5:53 PM 48.2 °F - 35.6 °F 62% 29.94 in 10.0 mi Calm Calm - N/A   Clear
6:13 PM 48.2 °F - 35.6 °F 62% 29.95 in 10.0 mi ESE 3.5 mph - N/A   Clear
6:33 PM 46.4 °F 45.2 °F 35.6 °F 66% 29.95 in 10.0 mi East 3.5 mph - N/A   Clear
6:53 PM 44.6 °F 42.2 °F 35.6 °F 71% 29.95 in 10.0 mi ESE 4.6 mph - N/A   Clear
7:13 PM 44.6 °F 41.4 °F 35.6 °F 71% 29.95 in 10.0 mi East 5.8 mph - N/A   Clear
7:33 PM 42.8 °F 40.1 °F 35.6 °F 76% 29.96 in 10.0 mi East 4.6 mph - N/A   Clear
7:53 PM 42.8 °F 41.1 °F 35.6 °F 76% 29.96 in 10.0 mi East 3.5 mph - N/A   Clear
8:13 PM 39.2 °F 35.9 °F 33.8 °F 81% 29.96 in 10.0 mi ESE 4.6 mph - N/A   Clear
8:33 PM 41.0 °F 38.0 °F 33.8 °F 76% 29.96 in 10.0 mi ESE 4.6 mph - N/A   Clear
8:53 PM 41.0 °F - 33.8 °F 76% 29.96 in 10.0 mi Calm Calm - N/A   Clear
9:13 PM 42.8 °F - 35.6 °F 76% 29.97 in 10.0 mi Calm Calm - N/A   Clear
9:33 PM 37.4 °F - 30.2 °F 75% 29.97 in 7.0 mi Calm Calm - N/A   Clear
9:53 PM 39.2 °F - 33.8 °F 81% 29.97 in 5.0 mi Calm Calm - N/A   Haze
10:13 PM 39.2 °F - 33.8 °F 81% 29.97 in 5.0 mi Calm Calm - N/A   Haze
10:33 PM 35.6 °F - 30.2 °F 81% 29.98 in 1.8 mi Calm Calm - N/A   Haze
10:53 PM 37.4 °F - 32.0 °F 81% 29.98 in 7.0 mi Calm Calm - N/A   Clear
11:13 PM 37.4 °F - 32.0 °F 81% 29.98 in 7.0 mi Calm Calm - N/A   Clear
11:33 PM 37.4 °F - 33.8 °F 87% 29.97 in 7.0 mi Calm Calm - N/A   Clear
11:53 PM 35.6 °F - 28.4 °F 75% 29.98 in 4.0 mi Calm Calm - N/A   Haze